Weather in Rio de Janeiro

Brazil     22˚54′11″S   43˚11′23″W
temp.,
°C
wind,
m/s
gust,
m/s
humid.,
%
clouds,
%
prec.,
mm/h
press.,
hPa
HPBL,
m
28 november, sat
sat2800:00+24˚e33830 0.0 1018215
03:00+24˚ene33842 0.0 1018222
06:00+24˚ene338346 0.1 1019246
09:00+26˚e227168 0.1 1021502
12:00+28˚ese546213 0.0 1019741
15:00+28˚ese68676 0.0 1018570
18:00+26˚e7107419 0.1 1018473
21:00+25˚ene58799 0.1 1020381
29 november, sun
sun2900:00+24˚ene35790 0.0 1019294
03:00+23˚ene33770 0.0 1017230
06:00+23˚ne34740 0.0 1018246
09:00+27˚ene23570 0.0 1019472
12:00+29˚e44551 0.0 1017792
15:00+29˚ese55610 0.0 1014726
18:00+27˚e587252 0.0 1015263
21:00+26˚ene467426 0.0 1016219
30 november, mon
mon3000:00+25˚ne34750 0.0 1015166
03:00+25˚n23740 0.0 1013145
06:00+25˚nne34713 0.0 1014140
09:00+29˚nne24562 0.0 1014446
12:00+31˚e34500 0.0 10121001
15:00+29˚se556242 0.0 1011529
18:00+28˚ese3570100 0.0 1011216
21:00+27˚ene1270100 0.3 101387
1 december, tue
tue100:00+26˚wnw227192 0.1 1012145
03:00+26˚ese117596 0.1 1010100
06:00+25˚sw127839 0.0 1012223
09:00+28˚sw326521 0.0 1012599
12:00+27˚s54680 0.0 1010524
15:00+27˚s347116 0.0 1009386
18:00+25˚sw3381100 0.8 1010283
21:00+25˚wsw3485100 0.9 1011304
2 december, wed
wed200:00+25˚wsw3487100 0.0 1011296
03:00+24˚nw1285100 0.1 1009218
06:00+24˚wsw1286100 0.0 1011190
09:00+24˚ese1187100 0.8 1012230
12:00+27˚ese327299 0.6 1011477
15:00+27˚ese447575 0.7 1010456
18:00+25˚e348274 4.2 1011341
21:00+25˚e348786 5.3 1012289